Lawton, OK

12:34 PM CDT on May 21, 2018 (GMT -0500)
Lawton-Fort Sill Regional

Weather History for KLAW - February, 2014

Change the Weather History Date:

Friday, February 21, 2014

  Actual Average Record
Temperature  
Mean Temperature 45 °F 46 °F  
Max Temperature 69 °F 59 °F 82 °F (1982)
Min Temperature 21 °F 34 °F 12 °F (1939)
Degree Days  
Heating Degree Days 20 19  
Month to date heating degree days 435  
Since 1 July heating degree days 2496  
Cooling Degree Days 0 0  
Month to date cooling degree days 0  
Year to date cooling degree days 0  
Moisture  
Dew Point 20 °F    
Average Humidity 44    
Maximum Humidity 82    
Minimum Humidity 15    
Precipitation  
Precipitation 0.00 in 0.04 in 2.10 in (1994)
Month to date precipitation 1.05  
Year to date precipitation 2.20  
Sea Level Pressure  
Sea Level Pressure 30.03 in    
Wind  
Wind Speed 5 mph (South)    
Max Wind Speed 21 mph    
Max Gust Speed 29 mph    
Visibility 10 miles    
Events      
T = Trace of Precipitation, MM = Missing Value Source: NWS Daily Summary

Daily Weather History Graph

Daily Weather History Graph

Search for Another Location

Airport or City:

Astronomy

Feb. 21, 2014 Rise Set
Actual Time 7:12 AM CST 6:22 PM CST
Civil Twilight 6:46 AM CST 6:48 PM CST
Nautical Twilight 6:17 AM CST 7:17 PM CST
Astronomical Twilight 5:48 AM CST 7:46 PM CST
Moon 12:01 AM CST 10:54 AM CST
Length of Visible Light 12h 01m
Length of Day
11h 10m
Waning Gibbous, 60% of the Moon is Illuminated
Feb 21
Waning Gibbous
Feb 22
Last Quarter
Mar 1
New
Mar 8
First Quarter
Mar 16
Full

Hourly Weather History & Observations

Time (CST) Temp. Windchill Dew Point Humidity Pressure Visibility Wind Dir Wind Speed Gust Speed Precip Events Conditions
12:53 AM 30.9 °F - 18.0 °F 59% 30.12 in 10.0 mi Calm Calm - N/A   Clear
1:53 AM 26.1 °F - 19.9 °F 78% 30.13 in 10.0 mi Calm Calm - N/A   Clear
2:53 AM 26.1 °F - 18.0 °F 71% 30.11 in 10.0 mi Calm Calm - N/A   Clear
3:53 AM 24.1 °F - 19.0 °F 81% 30.10 in 10.0 mi Calm Calm - N/A   Clear
4:53 AM 21.9 °F - 17.1 °F 82% 30.10 in 10.0 mi Calm Calm - N/A   Clear
5:53 AM 21.9 °F - 17.1 °F 82% 30.09 in 10.0 mi Calm Calm - N/A   Clear
6:53 AM 21.0 °F 16.2 °F 16.0 °F 81% 30.13 in 10.0 mi West 3.5 mph - N/A   Clear
7:53 AM 25.0 °F - 17.1 °F 72% 30.14 in 10.0 mi Calm Calm - N/A   Clear
8:53 AM 37.9 °F - 23.0 °F 55% 30.14 in 10.0 mi Calm Calm - N/A   Clear
9:53 AM 46.9 °F - 19.9 °F 34% 30.13 in 10.0 mi SSW 9.2 mph - N/A   Clear
10:53 AM 55.0 °F - 19.0 °F 24% 30.10 in 10.0 mi South 11.5 mph 23.0 mph N/A   Clear
11:53 AM 59.0 °F - 17.1 °F 20% 30.06 in 10.0 mi South 18.4 mph 27.6 mph 0.00 in   Clear
12:53 PM 62.1 °F - 17.1 °F 18% 30.02 in 10.0 mi South 20.7 mph 27.6 mph N/A   Clear
1:53 PM 63.0 °F - 19.0 °F 18% 29.97 in 10.0 mi SSW 15.0 mph 28.8 mph N/A   Clear
2:53 PM 66.9 °F - 19.9 °F 17% 29.94 in 10.0 mi SW 12.7 mph 27.6 mph N/A   Clear
3:53 PM 69.1 °F - 19.0 °F 15% 29.93 in 10.0 mi SW 16.1 mph 24.2 mph N/A   Clear
4:53 PM 69.1 °F - 19.0 °F 15% 29.92 in 10.0 mi SSW 8.1 mph 20.7 mph N/A   Clear
5:53 PM 64.0 °F - 19.9 °F 18% 29.92 in 10.0 mi South 8.1 mph - N/A   Clear
6:53 PM 54.0 °F - 23.0 °F 30% 29.94 in 10.0 mi SSE 6.9 mph - N/A   Clear
7:53 PM 52.0 °F - 24.1 °F 34% 29.94 in 10.0 mi SSE 9.2 mph - N/A   Clear
8:53 PM 51.1 °F - 23.0 °F 33% 29.94 in 10.0 mi SSE 4.6 mph - N/A   Clear
9:53 PM 50.0 °F - 24.1 °F 36% 29.95 in 10.0 mi SSE 5.8 mph - N/A   Clear
10:53 PM 51.1 °F - 25.0 °F 36% 29.94 in 10.0 mi SSE 10.4 mph - N/A   Clear
11:53 PM 50.0 °F - 26.1 °F 39% 29.93 in 10.0 mi SE 9.2 mph - N/A   Clear